Wind_Speed
15 15 15 16 16 16 16 17 18 19 19 20 22 23 23 22 22 21 20 19 18 17 18 18 18 19 18 19 18 18 18 19 18 17 16 15 14 13 12 11 10 9 8
14 13 13 14 15 15 16 17 18 18 19 20 21 22 23 23 21 22 21 20 19 19 18 19 19 20 21 20 21 20 20 21 20 20 18 18 16 15 14 13 12 11 10
12 12 13 14 15 16 17 17 17 18 18 19 20 21 22 22 22 22 22 21 20 19 19 19 19 21 21 22 22 23 22 23 23 22 21 21 20 18 17 16 15 14 12
12 13 14 15 16 17 16 17 18 18 18 18 18 19 20 21 22 23 23 22 22 21 21 21 20 21 22 22 23 24 24 24 25 25 24 23 23 21 20 19 18 17 15
13 13 14 15 15 16 16 16 17 18 18 17 17 18 19 20 22 22 23 23 22 23 23 23 23 23 23 23 24 25 26 26 26 27 28 26 25 24 23 22 21 20 18
12 13 13 14 14 14 14 15 15 16 16 16 16 17 18 19 21 22 22 23 23 23 24 25 25 25 25 26 26 26 26 27 28 28 29 29 28 27 26 25 24 23 21
11 12 12 12 13 14 14 14 14 15 15 15 16 17 18 19 20 21 22 22 23 24 25 25 26 27 27 28 28 28 28 28 29 30 31 31 31 30 29 27 26 26 25
11 12 12 13 13 14 14 14 15 15 15 16 17 18 19 20 20 21 22 23 24 25 25 26 27 28 29 30 30 30 30 30 30 30 31 32 33 33 32 31 29 28 27
12 12 13 13 14 14 15 15 15 16 16 17 17 18 19 21 21 22 22 23 24 25 26 26 27 28 29 30 31 32 32 31 32 32 33 33 34 35 35 34 33 31 30
12 13 13 14 15 16 16 16 17 17 17 18 18 19 20 21 22 23 24 24 25 26 27 27 28 29 30 31 32 32 34 34 34 34 35 35 35 36 37 36 36 34 33
12 13 14 15 16 17 17 17 17 18 18 19 20 20 20 21 22 23 25 25 26 27 28 29 29 30 32 33 33 33 34 35 35 36 37 36 37 37 37 37 38 37 36
13 14 15 16 17 18 19 19 19 20 20 21 21 22 23 24 24 25 26 27 28 28 29 30 31 31 32 33 34 35 36 36 36 37 38 38 38 39 38 39 39 40 39
14 15 16 17 19 20 20 21 21 21 22 22 23 24 25 26 26 27 27 28 29 30 31 32 32 33 33 34 35 36 36 37 38 38 38 39 40 40 39 39 39 40 41
15 16 17 18 20 21 21 22 23 24 24 24 25 26 26 27 28 29 29 30 31 32 33 34 35 35 35 36 36 36 37 38 38 39 40 40 40 41 41 40 40 40 41
17 18 19 20 21 22 24 25 26 26 26 27 27 28 28 28 29 30 31 32 32 33 34 36 37 37 37 38 38 38 38 39 39 40 41 42 42 41 42 42 42 41 41
18 19 20 22 23 25 26 28 28 29 29 29 29 30 30 30 31 32 32 33 34 34 34 37 38 38 38 39 40 40 40 41 40 41 41 42 43 42 42 43 44 43 42
20 21 22 24 26 28 29 30 30 31 31 32 32 32 32 32 32 33 34 34 35 35 35 36 38 39 39 39 40 41 41 42 42 42 42 43 44 44 44 44 44 44 43
22 23 25 27 28 29 31 32 33 33 33 34 34 34 34 34 34 35 35 36 36 36 35 36 38 40 40 41 41 41 42 42 43 43 43 43 44 45 45 45 45 45 45
25 26 28 29 30 31 33 34 35 35 35 35 35 35 35 36 36 36 36 36 36 36 36 35 37 39 40 41 42 42 42 42 43 44 44 44 45 45 46 47 47 46 46
27 29 30 31 32 33 34 36 36 37 37 37 37 37 37 37 36 36 35 35 35 35 35 35 36 37 39 40 41 42 43 43 44 45 45 45 46 46 46 47 47 47 47
28 30 32 32 33 34 36 37 38 38 38 38 39 38 38 37 37 36 35 35 35 35 35 35 35 36 37 39 40 41 42 43 44 45 46 46 46 46 47 47 47 48 47
31 32 33 34 35 36 38 38 38 39 39 40 39 39 38 38 37 36 36 35 35 35 35 35 34 35 36 38 40 41 42 43 44 46 46 46 46 46 46 47 47 48 48
32 33 35 36 37 37 38 39 40 40 41 41 40 39 38 38 37 37 36 35 35 34 34 34 34 34 35 36 38 39 41 42 43 45 46 46 46 46 46 47 47 48 48
34 36 37 37 37 37 38 40 41 41 41 41 41 39 38 38 37 37 35 34 34 34 34 33 33 33 34 36 37 38 39 40 41 43 45 45 46 46 46 47 47 47 48
37 38 38 38 38 39 40 41 42 42 41 41 41 40 39 38 38 36 35 33 33 33 33 33 32 32 32 34 36 37 38 39 40 43 45 45 46 47 47 47 47 47 48
39 39 39 40 40 41 42 42 42 42 42 41 41 41 39 38 37 36 34 33 33 33 32 32 33 33 33 34 35 37 38 39 39 42 45 46 46 47 47 47 47 48 48
Wind_Direction
282 279 280 282 281 279 278 276 277 278 277 273 270 267 266 264 262 261 261 260 257 256 253 251 247 241 238 237 234 232 229 226 225 224 222 221 221 221 220 219 216 211 209
286 283 284 283 281 280 280 279 278 278 277 274 271 267 263 260 258 257 257 258 258 256 253 251 250 244 240 238 236 235 233 229 226 227 226 224 223 223 223 222 222 219 216
293 288 290 289 286 285 283 281 280 278 278 277 272 266 262 258 256 257 257 256 256 254 252 252 249 244 241 240 238 236 235 232 229 228 228 227 226 226 226 224 223 223 222
298 296 297 295 293 291 289 285 282 281 279 277 272 266 264 262 259 259 258 257 256 255 253 251 248 246 243 243 241 239 236 233 231 230 229 229 227 228 228 226 224 224 225
305 303 302 300 298 296 293 289 285 281 278 277 274 270 267 265 262 262 260 259 258 256 254 252 250 248 245 244 243 241 238 235 233 232 231 231 229 228 228 228 226 225 226
310 308 307 306 305 302 299 294 292 287 282 278 275 272 268 265 265 264 262 260 258 256 254 252 249 247 246 244 243 242 240 236 235 233 231 231 231 230 229 229 228 227 227
317 315 314 313 311 310 307 302 297 293 288 283 278 275 271 269 267 264 263 263 260 257 254 252 249 247 245 244 243 243 242 239 236 235 233 232 231 231 230 229 229 228 228
322 320 320 319 317 314 311 308 303 298 294 289 284 280 276 272 269 266 263 262 262 259 256 253 250 249 246 244 243 243 242 240 239 237 235 233 232 232 231 230 230 229 229
325 325 324 323 322 321 318 314 309 303 298 292 287 283 280 276 273 269 266 263 262 261 258 255 252 250 248 245 244 242 242 242 240 238 236 234 233 231 231 231 231 230 230
330 328 326 325 324 323 321 317 313 308 303 298 292 287 283 279 277 274 270 267 264 262 260 258 254 251 248 246 245 244 243 242 240 238 237 236 233 232 232 232 232 231 231
332 331 329 327 325 323 321 318 315 311 305 301 296 292 287 283 279 276 274 270 266 264 261 259 256 252 249 247 245 244 243 242 241 239 237 237 235 233 233 232 232 231 231
333 332 330 328 327 325 321 318 316 312 308 303 299 295 291 286 282 279 276 273 270 266 263 260 258 255 251 248 246 245 244 243 241 239 238 236 236 235 234 234 233 232 231
336 332 331 330 329 327 324 321 318 316 312 308 303 299 294 289 286 282 278 275 272 268 265 261 259 256 253 251 248 245 244 243 241 240 238 237 237 236 235 234 234 233 231
337 335 333 331 330 329 327 324 321 318 314 311 307 303 298 293 288 284 280 276 272 270 267 263 260 257 254 252 249 246 245 243 241 240 238 238 237 236 235 234 233 233 231
336 335 334 332 331 330 328 325 323 320 316 313 310 306 302 297 292 287 283 279 275 271 268 265 262 258 255 252 250 247 245 244 243 241 239 237 236 236 236 234 233 233 232
333 332 331 330 328 327 326 324 322 320 317 315 312 308 305 300 296 291 287 282 277 273 268 265 262 259 257 254 251 248 245 243 242 241 239 237 235 235 235 234 233 232 232
330 329 327 326 325 325 325 324 321 319 317 316 313 310 307 303 298 294 289 285 280 274 269 265 263 260 257 254 251 248 245 243 242 241 239 237 236 235 234 234 233 232 231
324 323 322 322 323 323 324 324 322 320 318 316 314 312 308 305 301 297 291 286 282 277 272 266 263 260 257 254 251 248 245 243 241 240 239 238 236 235 233 233 233 231 231
318 318 318 319 320 320 321 322 321 319 318 317 315 313 310 307 303 299 293 288 283 279 274 269 264 261 258 254 251 248 245 243 240 239 238 236 235 234 233 233 233 231 230
315 316 316 316 317 317 318 320 320 319 318 317 316 314 311 308 304 301 296 290 285 280 276 270 265 261 258 255 251 248 245 243 240 239 238 237 235 234 233 232 232 231 230
314 315 314 314 314 315 316 318 319 319 318 317 316 314 312 309 305 301 297 292 287 282 277 273 268 263 259 256 252 248 245 243 241 240 238 237 235 234 233 232 231 230 229
313 314 314 313 313 313 314 315 317 318 317 317 315 314 312 309 305 301 297 293 288 283 279 275 271 265 260 257 253 250 246 243 241 240 237 236 235 233 233 232 230 229 228
312 313 313 313 313 313 314 315 316 316 316 316 314 313 311 308 305 302 298 294 289 285 280 275 271 267 262 259 255 252 248 244 241 240 238 235 234 233 231 230 229 228 227
310 312 313 312 312 312 313 315 315 315 315 315 314 312 310 308 305 302 298 294 291 287 282 277 272 268 264 260 257 253 249 245 241 239 237 234 233 232 230 229 227 227 226
308 309 311 311 312 312 313 314 314 315 315 314 313 312 310 308 305 302 298 294 291 288 284 279 274 270 266 262 258 254 250 247 242 238 236 233 230 230 229 228 227 226 225
306 308 309 310 311 311 312 314 314 314 314 313 312 310 308 306 304 301 298 295 291 288 284 279 274 271 268 264 261 257 252 248 243 238 236 232 229 229 227 227 226 225 224
Height
5879 5878 5878 5877 5877 5877 5876 5876 5876 5875 5874 5873 5873 5872 5873 5874 5875 5876 5878 5879 5880 5880 5881 5882 5884 5886 5888 5890 5891 5893 5895 5898 5900 5902 5904 5906 5908 5910 5911 5912 5913 5914 5915
5876 5875 5874 5874 5873 5873 5872 5872 5871 5871 5870 5869 5868 5868 5869 5870 5871 5872 5873 5874 5875 5876 5877 5879 5880 5881 5883 5885 5887 5889 5891 5893 5896 5898 5901 5903 5905 5907 5909 5911 5912 5913 5914
5872 5872 5871 5870 5869 5869 5868 5868 5867 5866 5866 5864 5864 5863 5864 5865 5866 5867 5868 5869 5871 5872 5873 5874 5875 5877 5878 5880 5882 5884 5886 5889 5891 5894 5897 5899 5901 5904 5906 5908 5910 5911 5913
5869 5868 5867 5866 5865 5865 5864 5863 5862 5862 5861 5860 5859 5859 5860 5860 5861 5862 5863 5864 5865 5867 5868 5869 5870 5872 5873 5875 5877 5879 5881 5884 5886 5889 5892 5895 5897 5900 5903 5905 5907 5909 5911
5866 5865 5864 5863 5861 5860 5859 5859 5858 5857 5856 5856 5855 5855 5855 5855 5856 5856 5857 5858 5860 5861 5862 5864 5865 5867 5868 5870 5872 5874 5876 5878 5881 5884 5887 5890 5893 5895 5898 5901 5903 5905 5908
5863 5862 5861 5859 5858 5856 5855 5854 5853 5852 5852 5852 5851 5851 5851 5851 5851 5851 5852 5852 5853 5855 5856 5858 5860 5861 5863 5865 5867 5868 5870 5872 5875 5878 5881 5884 5887 5890 5893 5896 5899 5901 5904
5860 5859 5858 5856 5855 5853 5852 5850 5849 5848 5848 5847 5847 5847 5847 5846 5846 5846 5846 5847 5847 5849 5850 5851 5853 5855 5857 5859 5860 5862 5864 5866 5869 5871 5874 5878 5881 5885 5888 5891 5894 5897 5900
5857 5856 5855 5853 5851 5850 5848 5847 5845 5844 5843 5843 5842 5842 5842 5842 5841 5841 5841 5841 5842 5842 5844 5845 5846 5848 5850 5852 5854 5856 5858 5860 5862 5865 5868 5871 5874 5878 5882 5885 5888 5891 5894
5855 5853 5851 5850 5848 5847 5845 5843 5842 5840 5839 5838 5838 5837 5836 5836 5836 5836 5836 5836 5836 5836 5837 5838 5840 5841 5842 5844 5846 5848 5851 5853 5855 5858 5860 5864 5867 5871 5875 5878 5882 5885 5889
5852 5850 5849 5847 5845 5844 5842 5840 5838 5836 5835 5834 5833 5832 5831 5830 5830 5829 5830 5829 5829 5830 5830 5831 5832 5833 5835 5836 5838 5840 5843 5845 5847 5850 5853 5856 5859 5863 5867 5871 5875 5879 5883
5850 5848 5846 5844 5842 5840 5838 5836 5834 5832 5830 5829 5827 5826 5825 5824 5823 5823 5823 5822 5822 5822 5823 5824 5824 5825 5827 5828 5830 5832 5834 5837 5839 5842 5845 5848 5852 5855 5859 5863 5867 5871 5875
5847 5845 5843 5841 5838 5836 5834 5832 5829 5827 5825 5823 5822 5820 5819 5818 5817 5816 5815 5815 5815 5815 5815 5815 5816 5817 5818 5820 5821 5823 5825 5828 5830 5833 5836 5839 5843 5847 5851 5855 5859 5863 5867
5845 5842 5840 5838 5835 5832 5830 5827 5824 5822 5820 5818 5816 5814 5812 5810 5809 5808 5808 5807 5806 5806 5806 5806 5807 5808 5809 5810 5812 5814 5816 5819 5821 5824 5827 5831 5834 5838 5842 5846 5850 5854 5859
5842 5839 5837 5834 5831 5828 5825 5822 5819 5816 5814 5811 5809 5806 5804 5802 5801 5799 5799 5798 5797 5797 5796 5797 5797 5798 5799 5800 5802 5804 5806 5809 5811 5814 5818 5821 5825 5829 5833 5837 5841 5845 5850
5839 5836 5833 5830 5827 5824 5821 5817 5814 5811 5808 5805 5802 5799 5796 5793 5791 5790 5789 5788 5788 5787 5786 5785 5786 5787 5788 5790 5792 5794 5796 5798 5801 5804 5808 5811 5815 5819 5824 5828 5832 5837 5841
5835 5832 5829 5826 5823 5820 5816 5812 5809 5805 5801 5798 5794 5791 5788 5785 5782 5780 5778 5777 5776 5776 5776 5774 5774 5775 5776 5778 5780 5783 5785 5787 5790 5793 5797 5800 5805 5809 5813 5818 5823 5827 5832
5831 5828 5825 5821 5818 5814 5811 5807 5803 5799 5794 5791 5787 5783 5779 5776 5773 5770 5768 5766 5764 5764 5764 5763 5762 5763 5764 5766 5768 5770 5773 5776 5779 5782 5786 5789 5794 5798 5803 5807 5812 5817 5822
5827 5824 5820 5817 5813 5809 5805 5800 5796 5791 5787 5783 5779 5774 5770 5767 5763 5760 5757 5754 5752 5751 5752 5752 5750 5750 5752 5753 5755 5758 5761 5764 5767 5770 5774 5778 5782 5787 5792 5797 5802 5807 5812
5822 5818 5815 5811 5807 5803 5798 5794 5789 5784 5779 5775 5770 5765 5761 5757 5753 5749 5746 5743 5741 5739 5739 5739 5739 5738 5739 5740 5743 5745 5748 5752 5755 5759 5762 5767 5771 5775 5780 5785 5790 5796 5801
5816 5812 5808 5804 5800 5796 5791 5787 5782 5776 5771 5766 5761 5756 5751 5747 5742 5738 5735 5732 5729 5728 5726 5726 5726 5726 5726 5727 5730 5733 5735 5739 5743 5746 5750 5755 5759 5764 5769 5774 5780 5785 5790
5809 5806 5802 5797 5793 5789 5784 5779 5774 5768 5763 5757 5752 5746 5741 5737 5732 5728 5724 5721 5718 5716 5715 5714 5714 5714 5715 5715 5717 5719 5723 5726 5730 5734 5738 5743 5747 5752 5757 5762 5768 5773 5779
5802 5798 5794 5790 5785 5780 5776 5771 5765 5760 5754 5748 5743 5737 5732 5727 5722 5718 5714 5711 5708 5705 5704 5703 5702 5702 5702 5703 5704 5707 5710 5714 5718 5722 5725 5730 5735 5740 5745 5751 5756 5762 5768
5795 5791 5786 5782 5777 5772 5767 5762 5756 5751 5745 5739 5733 5727 5722 5717 5712 5707 5703 5700 5697 5694 5693 5691 5691 5690 5690 5691 5692 5695 5697 5701 5705 5708 5713 5719 5723 5728 5733 5739 5745 5751 5757
5787 5782 5778 5773 5768 5763 5758 5752 5747 5741 5735 5729 5723 5718 5712 5707 5701 5697 5693 5690 5686 5683 5681 5680 5680 5679 5679 5679 5680 5682 5684 5688 5692 5695 5699 5706 5711 5716 5721 5727 5733 5739 5746
5778 5773 5769 5764 5759 5754 5748 5743 5737 5731 5725 5719 5713 5707 5702 5697 5691 5687 5683 5679 5676 5673 5670 5669 5668 5668 5668 5668 5668 5670 5672 5675 5680 5683 5687 5693 5698 5703 5710 5716 5722 5728 5734
5768 5764 5759 5754 5749 5744 5738 5732 5726 5721 5715 5709 5703 5697 5691 5687 5681 5676 5673 5669 5666 5663 5660 5658 5657 5657 5657 5656 5657 5658 5660 5663 5667 5671 5674 5680 5686 5690 5698 5704 5710 5717 5723